#timestamp,LO_Frequency,Hit,StdDev 
1649790015.1,286047002.4,N
1649790035.8,286047002.2,N
1649790055.7,286047001.4,N
1649790075.5,286047001.3,N
1649790095.4,286047009.0,Y
1649790115.2,286047005.4,P
1649790135.0,286047009.5,P
1649790135.9,286047009.5,P
1649790155.8,286047008.9,Y
1649790175.6,286047001.0,P
1649790195.5,286046997.8,N
1649790215.3,286046999.6,N
1649790235.1,286046996.6,N
1649790255.9,286046997.1,N
1649790275.7,286046998.3,N
1649790295.5,286047011.9,Y
1649790315.4,286046995.2,P
1649790335.2,286046996.7,N
1649790355.1,286046996.0,N
1649790356.0,286046996.0,N
1649790375.8,286046993.7,Y
1649790395.6,286047001.0,P
1649790415.5,286046998.8,N
1649790435.3,286046999.6,N
1649790455.1,286046997.3,N
1649790475.9,286047000.3,N
1649790495.7,286047004.0,N
1649790515.6,286047005.8,N
1649790535.4,286047003.1,N
1649790555.2,286047002.2,N
1649790575.1,286047000.1,N
1649790576.0,286047000.1,N
1649790595.8,286047006.0,N
1649790615.6,286047005.6,N
1649790635.5,286047006.5,N
1649790655.3,286047012.1,Y
1649790675.2,286047010.3,P
1649790695.9,286047010.9,N
1649790715.7,286047014.3,P
1649790735.6,286047013.7,N
1649790755.4,286047009.5,N
1649790775.3,286047013.3,Y
1649790795.1,286047001.7,P
1649790796.0,286047001.7,N
1649790815.8,286047004.2,N
1649790835.7,286046998.6,N
1649790855.5,286046997.3,N
1649790875.3,286046999.4,N
1649790895.2,286046997.6,N
1649790915.0,286046994.1,N
1649790915.9,286046994.1,N
1649790935.8,286046993.1,N
1649790955.6,286046988.6,N
1649790975.4,286046992.7,N
1649790995.3,286046991.7,N
1649791015.1,286046995.4,N
1649791035.8,286046995.7,N
1649791055.7,286046993.1,N
1649791075.5,286046991.8,N
1649791095.4,286046992.4,N
1649791115.2,286046992.1,N
1649791135.0,286046995.7,N
1649791135.9,286046995.7,N
1649791155.8,286046993.6,N
1649791175.6,286046997.3,N
1649791195.4,286046993.3,N
1649791215.3,286046994.2,N
1649791235.1,286046994.5,N
1649791255.9,286046999.5,N
1649791275.7,286046995.3,N
1649791295.5,286046992.0,N
1649791315.4,286046993.3,N
1649791335.2,286046998.7,N
1649791355.0,286047003.6,N
1649791355.9,286047003.6,N
1649791375.8,286047007.5,N
1649791395.6,286047006.1,N
1649791415.5,286047001.4,N
1649791435.3,286047000.9,N
1649791455.1,286046997.7,N
1649791475.9,286046995.1,N
1649791495.7,286046994.0,N
1649791515.5,286046994.4,N
1649791535.4,286046993.7,N
1649791555.2,286046997.2,N
1649791575.1,286046996.1,N
1649791576.0,286046996.1,N
1649791595.8,286046994.2,N
1649791615.6,286046997.3,N
1649791635.5,286047000.9,N
1649791655.3,286046994.9,N
1649791675.1,286046994.0,N
1649791695.9,286046991.8,N
1649791715.7,286046997.7,N
1649791735.6,286046993.4,N
1649791755.4,286046993.6,N
1649791775.2,286046994.2,N
1649791795.1,286046997.3,N
1649791796.0,286046997.3,N
1649791815.8,286046998.6,N
1649791835.7,286047000.5,N
1649791855.5,286046999.2,N
1649791875.3,286046994.9,N
1649791895.2,286046995.1,N
1649791915.9,286046998.5,N
1649791935.7,286047002.8,N
1649791955.6,286047002.7,N
1649791975.4,286047000.2,N
1649791995.3,286047007.6,N
1649792015.1,286047006.8,N
1649792016.0,286047006.8,N
1649792035.8,286047006.3,N
1649792055.7,286047006.0,N
1649792075.5,286047000.3,N
1649792095.4,286046995.4,N
1649792115.2,286046996.5,N
1649792135.0,286047005.5,N
1649792135.9,286047005.5,N
1649792155.8,286047008.2,N
1649792175.6,286047007.7,N
1649792195.4,286047011.8,N
1649792215.3,286047008.9,N
1649792235.1,286047010.4,N
1649792255.9,286047005.4,N
1649792275.7,286047004.2,N
1649792295.5,286047003.8,N
1649792315.4,286047006.1,N
1649792335.2,286047006.3,N
1649792355.0,286047009.1,N
1649792355.9,286047009.1,N
1649792375.8,286047008.1,N
1649792395.6,286047012.8,N
1649792415.5,286047011.7,N
1649792435.3,286047013.5,N
1649792455.1,286047012.5,N
1649792475.9,286047012.9,N
1649792495.7,286047018.7,Y
1649792515.5,286047010.6,P
1649792535.4,286047008.7,P
1649792555.2,286047005.8,P
1649792575.1,286047002.5,N
1649792576.0,286047002.5,N
1649792595.8,286047003.1,N
1649792615.6,286047010.3,Y
1649792635.5,286047000.9,P
1649792655.3,286047006.0,N
1649792675.1,286047003.6,N
1649792695.9,286047004.1,N
1649792715.7,286047002.3,N
1649792735.6,286046998.4,N
1649792755.4,286046999.6,N
1649792775.2,286046993.9,N
1649792795.1,286046988.5,Y
1649792796.0,286046988.5,P
1649792815.8,286046986.3,N
1649792835.7,286046989.6,N
1649792855.5,286046991.2,N
1649792875.3,286046990.7,N
1649792895.2,286046989.5,N
1649792915.9,286046983.7,Y
1649792935.7,286046993.1,P
1649792955.6,286046986.2,P
1649792975.4,286046985.6,P
1649792995.3,286046986.0,Y
1649793015.1,286046996.2,P
1649793016.0,286046996.2,N
1649793035.8,286046995.7,N
1649793055.7,286046996.2,N
1649793075.5,286046992.2,N
1649793095.3,286046993.9,N
1649793115.2,286047000.3,N
1649793135.0,286047004.1,N
1649793135.9,286047004.1,N
1649793155.8,286047005.1,N
1649793175.6,286047008.4,N
1649793195.4,286047010.9,N
1649793215.3,286047014.8,N
1649793235.1,286047019.9,N
1649793255.8,286047020.6,N
1649793275.7,286047014.1,N
1649793295.5,286047014.0,N
1649793315.4,286047006.1,N
1649793335.2,286047005.5,N
1649793355.0,286047010.5,N
1649793355.9,286047010.5,N
1649793375.8,286047017.2,N
1649793395.6,286047016.4,N
1649793415.4,286047012.5,N
1649793435.3,286047012.8,N
1649793455.1,286047011.8,N
1649793475.9,286047013.2,N
1649793495.7,286047015.1,N
1649793515.5,286047016.4,N
1649793535.4,286047017.9,N
1649793555.2,286047015.4,N
1649793575.0,286047011.1,N
1649793575.9,286047011.1,N
1649793595.8,286047015.2,N
